DateTimeUTC,F1_A11,F1_S11,BsB_S11,BsG_S11,BsR_S11,BbsB_S11,BbsG_S11,BbsR_S11,BaB_A11,BaG_A11,BaR_A11,Tu_S11,T_S11,Uu_S11,U_S11,P_S11,T1_A11
2021-08-24T17:00:00Z,00000200,20000000,,,,,,,0000.32,0000.21,-000.30,19.4,25.9,09.9,06.7,0679.4,31.1
2021-08-24T17:01:00Z,00000200,20000000,,,,,,,-000.42,-000.14,0000.14,19.4,25.9,09.9,06.7,0679.4,31.1
2021-08-24T17:02:00Z,00000200,20000000,,,,,,,0000.38,0000.07,0000.02,19.4,25.9,09.9,06.7,0679.4,31.1
2021-08-24T17:03:00Z,00000200,60000000,,,,,,,0000.72,0000.51,0000.84,19.4,25.9,09.9,06.7,0679.4,31.1
2021-08-24T17:04:00Z,00000200,40000000,0004.93,0003.54,0002.91,0000.80,0000.62,0000.40,0000.61,0000.44,0000.52,19.4,25.8,09.9,06.8,0680.1,31.0
2021-08-24T17:05:00Z,00000200,00000000,0005.08,0003.85,0002.93,0000.88,0000.42,0000.34,0000.94,0001.15,0000.39,19.5,25.7,09.9,06.7,0680.2,31.1
2021-08-24T17:06:00Z,00000200,00000000,0004.24,0003.94,0002.57,0000.50,0000.55,0000.37,0001.33,0001.26,0000.89,19.5,25.7,09.8,06.7,0680.2,31.0
2021-08-24T17:07:00Z,00000200,00000000,0005.88,0003.70,0002.95,0001.10,0000.69,0000.14,0001.01,0000.90,0000.82,19.5,25.7,09.9,06.7,0680.3,31.0
2021-08-24T17:08:00Z,00000200,00000000,0004.76,0003.72,0002.68,0000.61,0000.49,0000.75,0001.00,0000.85,0000.88,19.5,25.7,09.8,06.7,0680.3,31.1
2021-08-24T17:09:00Z,00000200,00000000,0004.43,0003.86,0002.75,0000.95,0000.48,0000.54,0000.73,0001.22,0000.78,19.5,25.7,09.8,06.7,0680.2,31.1
2021-08-24T17:10:00Z,00000200,00000000,0005.23,0004.12,0002.55,0000.97,0000.95,0000.28,0001.25,0000.71,0000.84,19.5,25.7,09.8,06.7,0680.1,31.1
2021-08-24T17:11:00Z,00000200,00000000,0005.21,0003.98,0002.66,0001.26,0000.32,0000.54,0001.36,0001.18,0000.72,19.5,25.7,09.8,06.7,0680.2,31.1
2021-08-24T17:12:00Z,00000200,00000000,0005.45,0004.10,0002.87,0001.01,0000.67,0000.56,0000.54,0000.75,0000.84,19.5,25.7,09.6,06.6,0680.2,31.0
2021-08-24T17:13:00Z,00000200,00000000,0004.99,0003.98,0002.85,0000.84,0000.53,0000.66,0001.26,0001.31,0001.00,19.5,25.7,09.7,06.7,0680.2,31.0
2021-08-24T17:14:00Z,00000200,00000000,0005.39,0004.01,0002.86,0000.82,0000.56,0000.16,0001.08,0000.61,0000.37,19.5,25.7,09.8,06.7,0680.3,31.1
2021-08-24T17:15:00Z,00000200,00000000,0004.46,0003.78,0002.73,0001.03,0000.29,0000.42,0001.10,0001.27,0001.00,19.5,25.7,09.8,06.7,0680.2,31.1
2021-08-24T17:16:00Z,00000200,00000000,0004.82,0003.56,0002.59,0001.15,0000.80,0000.51,0001.12,0000.89,0000.78,19.5,25.7,09.9,06.8,0680.2,31.0
2021-08-24T17:17:00Z,00000200,00000000,0004.91,0003.72,0002.60,0001.20,0000.65,0000.29,0000.64,0000.77,0000.73,19.5,25.7,09.9,06.8,0680.3,31.1
2021-08-24T17:18:00Z,00000200,00000000,0004.74,0003.57,0002.88,0000.73,0000.21,0000.29,0001.33,0000.94,0000.51,19.5,25.7,09.8,06.7,0680.2,31.0
2021-08-24T17:19:00Z,00000200,00000000,0005.07,0003.72,0002.72,0001.10,0000.59,0000.33,0000.91,0001.35,0000.89,19.5,25.7,09.8,06.7,0680.2,31.0
2021-08-24T17:20:00Z,00000200,00000000,0004.24,0004.04,0002.42,0000.88,0000.62,0000.25,0001.39,0000.38,0001.35,19.5,25.7,09.8,06.8,0680.2,31.0
2021-08-24T17:21:00Z,00000200,00000000,0005.14,0003.84,0002.98,0000.82,0000.71,0000.17,0000.97,0001.42,0000.85,19.5,25.7,09.9,06.8,0680.3,31.0
2021-08-24T17:22:00Z,00000200,00000000,0005.21,0003.86,0002.86,0001.18,0000.39,0000.34,0001.02,0001.10,0000.61,19.5,25.7,09.9,06.8,0680.3,31.1
2021-08-24T17:23:00Z,00000200,00000000,0004.85,0003.71,0002.80,0000.29,0000.47,0000.09,0001.14,0000.72,0000.82,19.5,25.7,09.9,06.8,0680.3,31.0
2021-08-24T17:24:00Z,00000200,00000000,0005.45,0003.76,0002.80,0000.74,0000.63,0000.26,0000.96,0001.44,0000.73,19.5,25.7,09.9,06.8,0680.3,31.0
2021-08-24T17:25:00Z,00000200,00000000,0004.85,0003.95,0002.69,0000.80,0000.62,0000.42,0001.17,0000.94,0000.81,19.5,25.7,10.0,06.9,0680.3,31.0
2021-08-24T17:26:00Z,00000200,00000000,0005.21,0004.10,0002.84,0001.38,0000.58,0000.09,0001.00,0000.97,0000.71,19.5,25.7,10.0,06.9,0680.4,31.1
2021-08-24T17:27:00Z,00000200,00000000,0004.99,0004.09,0002.64,0000.89,0000.42,0000.22,0001.14,0000.83,0001.28,19.5,25.7,10.0,06.9,0680.3,31.0
2021-08-24T17:28:00Z,00000200,00000000,0004.61,0003.80,0002.54,0000.50,0000.47,-000.04,0001.10,0001.05,0000.49,19.5,25.7,10.1,07.0,0680.2,31.1
2021-08-24T17:29:00Z,00000200,00000000,0005.21,0004.34,0002.88,0000.88,0000.60,0000.44,0001.06,0000.86,0000.90,19.5,25.7,10.0,06.9,0680.4,31.0
2021-08-24T17:30:00Z,00000200,00000000,0005.42,0004.17,0003.06,0001.00,0000.57,0000.66,0001.03,0001.00,0000.79,19.5,25.7,10.1,07.0,0680.3,31.0
2021-08-24T17:31:00Z,00000200,00000000,0004.55,0003.93,0002.77,0000.81,0000.66,0000.49,0001.13,0001.14,0000.74,19.5,25.7,10.2,07.0,0680.3,31.0
2021-08-24T17:32:00Z,00000200,00000000,0005.05,0003.80,0002.77,0000.90,0000.80,0000.69,0001.14,0001.12,0000.75,19.5,25.7,10.2,07.0,0680.3,31.1
2021-08-24T17:33:00Z,00000200,00000000,0005.27,0004.08,0002.50,0001.00,0000.37,0000.65,0001.01,0001.05,0000.78,19.5,25.7,10.2,07.0,0680.3,31.0
2021-08-24T17:34:00Z,00000200,00000000,0005.42,0004.26,0002.40,0001.13,0000.48,0000.03,0001.75,0001.09,0001.01,19.5,25.7,10.3,07.1,0680.2,31.0
2021-08-24T17:35:00Z,00000200,00000000,0004.88,0004.18,0002.83,0001.42,0000.54,0000.52,0000.95,0001.02,0001.31,19.5,25.7,10.3,07.1,0680.3,31.0
2021-08-24T17:36:00Z,00000200,00000000,0005.80,0003.81,0003.03,0000.12,0000.43,0000.27,0000.97,0001.04,0000.47,19.5,25.7,10.3,07.1,0680.4,31.0
2021-08-24T17:37:00Z,00000200,00000000,0005.28,0004.23,0002.73,0001.21,0000.58,0000.35,0001.14,0001.17,0000.70,19.5,25.7,10.4,07.1,0680.3,31.1
2021-08-24T17:38:00Z,00000200,00000000,0005.20,0003.83,0002.66,0000.79,0000.69,0000.50,0000.70,0001.12,0000.82,19.5,25.7,10.3,07.1,0680.2,31.0
2021-08-24T17:39:00Z,00000200,00000000,0005.86,0004.01,0003.08,0000.67,0000.37,0000.26,0001.34,0000.80,0001.01,19.5,25.7,10.4,07.2,0680.3,31.0
2021-08-24T17:40:00Z,00000200,00000000,0005.02,0004.04,0002.55,0001.03,0000.45,0000.37,0001.12,0001.04,0000.68,19.5,25.7,10.5,07.3,0680.3,31.0
2021-08-24T17:41:00Z,00000200,00000000,0005.05,0003.89,0002.79,0000.77,0000.30,-000.14,0001.31,0001.25,0000.67,19.5,25.7,10.7,07.4,0680.3,31.0
2021-08-24T17:42:00Z,00000200,00000000,0005.60,0003.95,0002.75,0000.57,0000.49,0000.37,0001.20,0000.99,0001.13,19.5,25.7,10.6,07.3,0680.3,31.1
2021-08-24T17:43:00Z,00000200,00000000,0004.73,0004.04,0002.97,0001.19,0000.45,0000.07,0000.81,0000.75,0000.77,19.6,25.7,10.7,07.4,0680.2,31.1
2021-08-24T17:44:00Z,00000200,00000000,0005.04,0004.17,0002.74,0001.08,0000.76,0000.58,0001.37,0001.33,0000.86,19.6,25.7,10.8,07.4,0680.3,31.1
2021-08-24T17:45:00Z,00000200,00000000,0005.82,0003.76,0002.90,0001.16,0000.48,0000.55,0001.19,0001.15,0000.95,19.6,25.7,10.8,07.4,0680.3,31.1
2021-08-24T17:46:00Z,00000200,00000000,0004.52,0003.81,0002.79,0001.15,0000.29,0000.56,0001.13,0001.03,0001.05,19.6,25.7,10.9,07.5,0680.2,31.1
2021-08-24T17:47:00Z,00000200,00000000,0004.83,0003.63,0002.81,0001.20,0000.58,0000.46,0001.25,0001.43,0000.87,19.6,25.7,10.9,07.5,0680.3,31.1
2021-08-24T17:48:00Z,00000200,00010000,0005.22,0003.96,0002.53,0000.94,0000.47,0000.20,0000.80,0000.87,0000.95,19.6,25.7,10.9,07.5,0680.3,31.1
2021-08-24T17:49:00Z,00000200,00000000,0004.88,0004.26,0003.02,0001.07,0000.45,0000.10,0001.07,0000.62,0000.74,19.6,25.7,11.0,07.6,0680.3,31.1
2021-08-24T17:50:00Z,00000200,00000000,0005.05,0003.90,0002.63,0000.31,0000.34,0000.40,0001.43,0001.47,0000.70,19.6,25.7,11.1,07.6,0680.2,31.1
2021-08-24T17:51:00Z,00000200,00000000,0005.27,0003.97,0002.69,0000.67,0000.31,0000.17,0001.09,0000.78,0001.13,19.6,25.7,11.1,07.6,0680.3,31.1
2021-08-24T17:52:00Z,00000200,00000000,0003.78,0003.83,0002.46,0000.51,0000.67,0000.05,0000.86,0000.99,0000.60,19.6,25.7,11.1,07.6,0680.3,31.1
2021-08-24T17:53:00Z,00000200,00000000,0004.50,0004.25,0002.99,0000.56,0000.35,0000.70,0001.45,0000.72,0000.95,19.6,25.7,11.1,07.6,0680.3,31.0
2021-08-24T17:54:00Z,00000200,00000000,0004.12,0004.04,0002.65,0001.25,0000.43,0000.35,0000.63,0001.10,0000.59,19.6,25.7,11.0,07.6,0680.2,31.0
2021-08-24T17:55:00Z,00000200,00000000,0005.36,0003.95,0002.76,0000.93,0000.44,0000.64,0000.98,0000.79,0000.85,19.6,25.7,11.0,07.6,0680.1,31.0
2021-08-24T17:56:00Z,00000200,00000000,0005.33,0003.78,0002.48,0000.94,0000.47,0000.40,0000.92,0001.13,0000.60,19.6,25.7,11.1,07.7,0680.3,31.1
2021-08-24T17:57:00Z,00000200,40000000,,,,,,,0000.21,-000.21,0000.29,19.6,25.7,10.7,07.4,0680.5,31.1
2021-08-24T17:58:00Z,00000200,60000000,,,,,,,-000.11,0000.13,-000.05,19.4,25.8,10.9,07.3,0679.2,31.0
2021-08-24T17:59:00Z,00000200,20000000,,,,,,,0000.24,0000.21,-000.11,19.4,25.9,10.8,07.3,0679.3,31.0
